Temp
16 14 14 17 14 17 17 16 15 17 18 19 17 16 19 19 19 17 16 15 15 15 14 14 15 16 16 16 16 16 15 15 16 15 14 14 14 14 15 15 15 15 15 14
14 14 17 16 15 15 15 15 15 17 18 17 17 17 17 18 17 17 15 14 14 14 14 14 14 14 15 15 15 15 15 14 14 14 14 15 15 14 14 14 13 13 13 12
15 15 17 16 15 15 15 15 16 16 17 17 17 17 17 19 19 16 16 17 14 14 13 14 14 14 14 14 14 14 14 13 14 14 15 14 14 13 13 13 13 13 12 12
14 16 16 15 15 15 14 16 16 16 15 14 17 16 17 18 18 15 15 14 13 13 13 14 14 14 14 14 14 14 14 14 14 14 14 14 14 14 13 13 12 11 11 10
14 14 15 14 15 16 15 17 16 16 15 15 16 14 18 18 17 14 14 13 13 13 13 14 14 14 14 14 14 14 14 14 13 13 13 13 12 12 11 11 11 10 10 10
15 16 16 16 17 16 17 16 16 16 14 14 16 15 15 16 17 14 13 13 12 12 13 14 13 13 13 13 13 13 13 13 12 12 12 12 11 11 10 10 9 9 8 8
14 15 16 18 16 16 16 15 13 13 14 15 17 15 18 16 16 15 13 12 11 13 13 13 13 13 13 13 13 13 12 12 12 12 11 11 10 10 9 8 8 8 8 8
14 13 15 16 16 17 16 17 12 14 13 15 15 14 16 16 17 18 15 13 11 12 13 13 13 13 12 12 12 12 12 12 12 11 10 10 9 9 8 8 8 8 7 7
15 15 17 18 17 18 15 15 17 14 13 10 13 14 15 13 13 12 12 11 11 12 12 13 12 12 12 11 11 11 12 11 11 10 10 9 8 8 8 7 7 7 7 7
15 14 15 17 18 17 17 16 16 13 13 14 13 13 14 12 11 11 11 11 10 12 12 12 11 11 11 11 11 11 10 10 10 9 8 8 8 8 7 7 7 7 7 6
15 14 14 15 16 16 14 16 17 16 9 12 12 13 12 13 11 11 11 10 10 11 11 11 11 11 11 11 11 10 10 9 9 9 9 8 7 7 7 6 6 6 6 6
16 12 12 14 16 17 17 16 16 14 12 9 8 15 12 12 12 12 10 9 9 10 11 11 11 11 11 10 9 9 9 9 9 8 8 7 7 6 6 6 6 5 5 5
15 12 9 12 14 16 15 15 16 14 9 13 11 13 11 11 10 11 9 9 9 11 11 11 10 10 9 9 8 8 8 8 7 7 7 6 6 6 5 5 5 5 4 4
16 11 13 14 14 15 14 15 16 15 14 15 14 14 10 10 9 8 9 9 10 11 10 10 9 9 8 8 8 8 7 7 7 7 7 6 6 5 4 4 3 3 3 3
14 12 13 13 14 14 15 15 15 15 15 14 16 13 10 10 10 9 9 8 8 9 9 9 8 8 8 7 7 7 7 7 7 7 6 5 4 4 3 3 3 2 2 2
10 9 12 12 14 15 14 14 15 15 16 16 14 13 12 12 11 9 9 8 8 8 9 8 8 7 7 7 7 7 7 7 7 5 4 4 3 3 2 2 2 2 2 1
9 10 9 11 11 12 11 13 14 15 14 15 14 14 12 10 9 9 8 8 8 8 8 7 7 7 7 7 7 7 7 5 5 4 3 3 2 2 2 2 2 2 1 -0
7 11 8 8 9 10 12 11 14 15 14 13 13 13 13 10 10 10 9 9 8 8 7 6 6 6 6 6 6 5 4 4 4 3 2 1 1 2 2 2 2 1 1 -0
7 6 6 8 9 10 11 10 10 13 11 13 11 13 12 10 8 6 9 7 7 7 6 6 6 6 6 5 5 4 4 3 2 1 1 1 1 1 1 2 1 0 -1 -2
6 6 8 6 9 10 10 10 11 13 12 11 12 12 9 9 7 4 6 7 7 6 6 6 5 5 5 4 4 4 2 2 -0 0 0 0 0 0 -1 -3 -3 -3 -3 -3
5 5 7 6 7 7 8 10 12 11 11 10 13 12 10 9 10 6 5 6 6 6 5 5 5 5 4 3 3 2 1 -1 -1 -1 0 1 0 -0 -3 -4 -4 -4 -3 -3
6 6 6 5 6 9 8 9 9 9 7 10 11 10 8 7 7 6 5 5 5 5 4 5 3 3 2 2 1 0 -0 -0 -0 0 1 1 -0 -1 -2 -3 -3 -3 -3 -3
6 6 6 6 7 7 8 8 9 11 10 9 9 7 7 6 4 3 4 4 4 5 3 2 3 2 2 1 0 0 0 0 1 1 0 -0 -0 -1 -2 -2 -2 -3 -3 -4
5 5 5 6 7 7 7 7 9 10 11 9 9 7 6 4 3 3 3 3 3 3 2 3 2 1 1 1 0 0 0 1 0 -0 -0 -1 -1 -1 -1 -1 -3 -5 -5 -6
5 5 4 4 6 5 5 7 8 7 7 7 5 6 4 3 2 3 3 3 3 2 2 2 1 1 1 0 -0 0 0 -0 -0 -1 -1 -1 -1 -1 -1 -1 -3 -3 -5 -6
3 3 5 5 5 6 6 6 6 7 5 6 5 4 4 5 5 4 4 3 2 2 1 1 1 0 0 -0 0 -0 -1 -1 -1 -1 -1 -1 -1 -2 -2 -2 -1 -2 -3 -4
Height
1490 1497 1497 1482 1493 1495 1499 1504 1505 1487 1485 1486 1486 1486 1476 1471 1476 1481 1485 1487 1489 1492 1494 1495 1496 1498 1500 1503 1506 1508 1511 1515 1518 1520 1522 1525 1526 1527 1528 1528 1527 1526 1525 1524
1490 1486 1477 1485 1490 1495 1499 1503 1497 1486 1481 1488 1483 1482 1473 1470 1468 1470 1476 1482 1485 1488 1492 1494 1495 1497 1499 1502 1506 1509 1511 1513 1516 1518 1520 1522 1523 1524 1525 1525 1525 1524 1523 1523
1477 1475 1479 1483 1489 1494 1494 1497 1493 1495 1483 1483 1483 1481 1473 1465 1465 1469 1473 1473 1480 1481 1485 1490 1493 1495 1497 1501 1505 1508 1511 1513 1514 1516 1518 1520 1521 1523 1523 1524 1523 1522 1520 1519
1476 1473 1476 1479 1484 1485 1494 1478 1487 1489 1494 1503 1479 1492 1471 1463 1464 1467 1471 1474 1477 1481 1485 1488 1491 1494 1497 1500 1504 1507 1510 1512 1514 1515 1517 1519 1520 1521 1521 1520 1520 1519 1518 1517
1458 1463 1469 1475 1471 1474 1481 1475 1483 1483 1488 1491 1485 1493 1464 1459 1462 1467 1468 1470 1474 1478 1481 1484 1487 1491 1497 1501 1503 1505 1509 1511 1513 1514 1516 1517 1518 1519 1518 1518 1517 1517 1516 1514
1453 1455 1458 1456 1460 1468 1467 1477 1481 1481 1487 1492 1478 1484 1468 1461 1452 1457 1460 1464 1467 1473 1480 1485 1490 1492 1494 1498 1501 1504 1507 1509 1511 1512 1513 1514 1515 1515 1515 1514 1514 1513 1513 1511
1455 1452 1449 1451 1462 1462 1469 1481 1502 1500 1494 1479 1464 1475 1452 1444 1442 1442 1448 1456 1462 1469 1475 1479 1484 1488 1492 1495 1500 1503 1505 1508 1510 1511 1511 1511 1512 1512 1512 1512 1511 1511 1510 1509
1451 1460 1443 1440 1442 1449 1455 1464 1488 1492 1489 1471 1462 1461 1446 1433 1433 1435 1439 1445 1457 1466 1472 1476 1480 1484 1489 1493 1497 1501 1505 1507 1508 1508 1509 1509 1509 1509 1509 1509 1508 1507 1506 1504
1438 1437 1425 1425 1433 1440 1452 1458 1454 1471 1474 1488 1465 1447 1438 1434 1433 1435 1439 1446 1451 1459 1466 1471 1477 1482 1487 1492 1497 1501 1503 1504 1504 1505 1505 1505 1505 1505 1505 1505 1505 1504 1503 1500
1417 1434 1420 1421 1431 1433 1436 1441 1463 1466 1475 1469 1456 1454 1442 1439 1438 1437 1439 1444 1450 1456 1463 1470 1476 1482 1487 1491 1495 1499 1501 1501 1502 1503 1502 1502 1502 1503 1503 1502 1501 1500 1498 1497
1410 1420 1424 1419 1419 1427 1439 1439 1439 1451 1473 1464 1463 1444 1423 1423 1427 1429 1434 1440 1444 1451 1459 1467 1474 1481 1486 1489 1493 1495 1496 1497 1498 1498 1498 1498 1499 1499 1499 1499 1497 1495 1493 1491
1391 1417 1427 1418 1408 1409 1412 1418 1426 1443 1455 1462 1466 1420 1418 1418 1421 1427 1432 1439 1444 1450 1459 1468 1474 1478 1483 1486 1489 1490 1491 1492 1493 1493 1495 1496 1497 1496 1495 1493 1491 1488 1486 1484
1392 1408 1434 1426 1417 1410 1416 1419 1419 1427 1444 1429 1452 1429 1419 1419 1425 1431 1434 1440 1445 1452 1460 1466 1472 1476 1479 1482 1485 1487 1488 1490 1491 1492 1492 1492 1492 1490 1488 1486 1483 1481 1479 1477
1379 1396 1392 1395 1402 1405 1415 1412 1411 1418 1424 1420 1406 1416 1425 1425 1428 1431 1436 1440 1445 1450 1455 1461 1468 1472 1475 1477 1480 1482 1484 1485 1487 1487 1487 1486 1484 1483 1482 1480 1478 1476 1474 1470
1373 1386 1389 1392 1394 1397 1396 1397 1402 1401 1398 1409 1395 1410 1416 1417 1421 1422 1427 1438 1443 1447 1453 1458 1462 1467 1471 1474 1475 1477 1479 1481 1482 1482 1481 1480 1480 1479 1477 1475 1472 1469 1465 1461
1374 1390 1387 1393 1390 1390 1391 1388 1387 1388 1392 1391 1398 1400 1400 1408 1418 1426 1429 1436 1442 1446 1451 1456 1460 1463 1466 1468 1471 1474 1477 1477 1477 1477 1476 1476 1474 1473 1471 1468 1464 1460 1457 1454
1372 1384 1392 1389 1393 1397 1397 1377 1379 1380 1383 1382 1387 1390 1396 1407 1411 1415 1422 1429 1435 1441 1447 1452 1457 1460 1462 1465 1469 1472 1473 1472 1472 1472 1472 1470 1468 1465 1462 1459 1457 1454 1450 1446
1372 1370 1388 1395 1398 1397 1365 1367 1364 1366 1373 1376 1377 1381 1387 1393 1401 1409 1416 1419 1429 1437 1443 1448 1452 1456 1460 1463 1466 1468 1468 1468 1467 1467 1467 1465 1462 1459 1455 1453 1450 1448 1445 1442
1360 1373 1389 1389 1385 1377 1366 1366 1369 1367 1368 1366 1375 1379 1385 1393 1404 1412 1415 1420 1423 1430 1440 1445 1450 1454 1457 1459 1461 1463 1463 1464 1463 1463 1461 1458 1455 1454 1451 1447 1445 1443 1441 1440
1364 1367 1373 1390 1380 1370 1360 1356 1359 1363 1365 1361 1367 1370 1379 1388 1403 1406 1408 1412 1421 1427 1433 1440 1446 1449 1452 1456 1458 1459 1459 1459 1459 1456 1454 1454 1452 1449 1447 1446 1444 1441 1438 1435
1370 1374 1370 1380 1377 1369 1356 1354 1359 1371 1362 1350 1355 1359 1368 1377 1377 1389 1403 1412 1418 1423 1430 1438 1443 1445 1450 1453 1454 1455 1456 1456 1454 1450 1448 1447 1445 1444 1444 1444 1441 1437 1434 1432
1359 1368 1371 1381 1378 1365 1349 1356 1360 1352 1349 1351 1352 1355 1360 1371 1377 1385 1398 1407 1413 1418 1426 1432 1440 1443 1448 1450 1451 1453 1453 1451 1449 1446 1444 1443 1443 1442 1441 1440 1438 1435 1432 1428
1353 1352 1359 1363 1357 1348 1348 1347 1346 1347 1349 1355 1356 1359 1363 1369 1380 1388 1397 1408 1413 1417 1426 1433 1437 1440 1444 1446 1448 1449 1449 1447 1445 1443 1443 1443 1442 1440 1438 1435 1432 1429 1427 1424
1347 1348 1354 1355 1345 1346 1347 1347 1348 1350 1351 1354 1356 1360 1367 1373 1383 1391 1398 1405 1413 1418 1424 1429 1433 1438 1442 1443 1445 1446 1445 1442 1442 1443 1443 1442 1441 1438 1435 1432 1429 1425 1423 1419
1337 1343 1348 1349 1346 1347 1347 1345 1347 1350 1353 1356 1361 1362 1368 1376 1388 1393 1401 1406 1412 1417 1422 1427 1431 1435 1438 1440 1441 1441 1440 1442 1443 1443 1443 1441 1439 1436 1433 1430 1427 1424 1422 1418
1327 1331 1334 1333 1330 1332 1336 1341 1345 1349 1354 1356 1360 1370 1377 1382 1390 1398 1402 1407 1413 1417 1422 1425 1429 1433 1435 1436 1437 1437 1439 1440 1442 1442 1441 1439 1436 1434 1431 1426 1424 1423 1418 1413
Wind_Speed
9 5 10 23 8 1 2 5 7 9 2 1 8 8 16 14 11 22 26 32 34 30 27 23 19 16 16 16 16 19 23 20 16 15 14 12 9 6 5 1 4 7 10 11
2 15 22 6 9 7 6 5 18 15 10 4 11 11 9 4 7 27 34 31 35 33 31 27 23 21 19 23 22 22 22 20 17 14 13 10 9 5 2 4 8 11 12 14
16 3 12 8 6 7 10 12 16 12 6 4 7 9 6 3 4 21 30 39 33 39 38 33 28 24 25 26 26 24 22 20 17 14 10 7 5 3 7 10 14 15 16 17
13 16 9 12 9 13 8 12 12 9 2 4 5 6 9 6 4 13 24 28 35 36 38 35 30 28 26 27 25 23 21 19 16 12 7 2 5 9 13 16 18 20 21 22
12 16 23 12 13 13 9 5 11 13 10 3 6 5 10 4 9 7 16 28 36 40 42 38 33 29 25 24 23 22 19 16 11 5 4 8 9 11 13 16 18 20 23 23
13 16 13 19 21 12 2 3 5 3 4 12 14 9 5 8 9 4 14 26 37 43 41 35 29 28 27 24 21 19 16 12 5 2 7 10 10 13 14 16 19 19 18 16
7 18 3 6 7 10 7 5 3 3 5 10 9 8 17 6 8 10 18 28 36 46 43 39 35 32 29 26 22 18 14 8 3 6 8 9 13 16 17 15 13 15 19 22
14 8 20 11 9 7 17 17 6 8 7 9 8 8 6 8 10 21 28 38 38 44 43 40 37 34 30 27 22 16 11 5 5 8 10 12 17 17 13 13 16 18 20 19
14 15 6 22 8 11 7 13 17 6 3 1 5 5 5 5 3 10 22 32 38 46 45 42 38 34 30 25 19 13 8 5 4 7 10 13 13 9 10 13 15 18 20 23
6 1 8 15 15 13 12 8 4 1 9 13 5 6 6 3 6 10 17 27 34 44 44 41 36 33 27 21 16 10 6 3 3 5 7 10 13 13 16 19 22 23 24 25
5 4 3 8 17 21 7 11 7 10 6 7 1 6 6 15 16 19 17 28 36 43 46 41 37 30 23 18 13 10 6 4 4 8 12 14 13 15 16 18 21 23 24 25
29 5 7 11 3 16 23 23 24 12 8 5 3 14 2 8 12 17 22 27 34 42 45 39 32 27 23 18 16 13 8 6 8 10 9 10 14 18 22 25 25 25 26 28
18 8 3 3 9 9 6 14 15 11 4 19 6 5 5 9 9 19 25 28 36 44 40 35 31 29 26 23 18 13 9 7 6 7 11 15 19 24 25 24 26 29 32 32
25 5 20 21 6 10 12 12 20 16 14 13 24 11 2 7 11 14 24 31 41 44 42 36 32 30 25 21 16 12 8 5 8 12 16 20 23 24 25 27 27 27 28 31
14 12 10 11 16 6 14 24 21 27 26 21 22 15 11 15 18 27 36 33 37 41 39 37 34 29 24 19 14 8 6 9 14 17 20 22 22 24 27 29 30 30 30 31
5 3 15 10 15 14 14 18 25 25 22 26 10 12 10 18 17 21 31 33 31 34 38 33 30 25 19 14 9 7 9 13 16 19 21 22 24 26 27 28 28 30 30 29
12 7 5 11 4 1 13 22 22 19 15 19 22 10 7 9 17 28 31 33 34 38 36 32 26 20 16 11 8 8 11 13 16 19 21 23 24 24 24 25 26 27 29 26
6 13 3 3 8 8 7 4 20 26 15 9 4 13 14 20 27 28 35 40 38 38 35 30 26 20 15 10 8 9 11 15 18 19 20 18 19 21 23 22 22 24 24 21
4 5 4 5 8 5 6 4 8 15 13 14 8 10 12 23 19 6 28 35 41 40 33 28 22 17 12 8 8 13 14 16 17 16 13 13 16 19 21 20 21 20 20 20
5 6 4 4 5 12 1 3 7 4 16 10 14 16 16 24 9 6 33 43 42 38 34 28 21 12 8 10 12 13 14 14 13 12 10 11 15 19 20 20 20 20 19 21
4 3 8 3 3 6 6 3 7 12 5 10 27 23 22 15 15 32 40 41 41 36 29 20 13 9 14 13 11 11 10 10 11 12 12 11 14 17 17 18 18 19 20 22
7 7 4 3 1 10 9 4 11 6 3 8 14 25 30 23 29 48 46 45 40 32 24 15 17 15 12 9 7 7 7 8 9 11 12 14 14 14 15 16 17 19 21 24
4 5 6 8 6 2 6 1 6 14 10 10 22 27 36 36 41 42 43 37 32 29 25 22 15 11 8 6 4 3 1 4 8 11 11 11 12 13 14 16 18 19 20 24
2 3 3 2 5 5 5 6 17 15 17 20 25 32 35 39 39 39 40 36 32 27 23 17 13 11 9 6 4 4 5 7 9 9 11 12 14 14 15 15 16 18 21 24
4 10 7 4 0 6 8 15 22 20 22 26 28 35 38 41 34 38 35 32 28 24 19 15 13 12 10 9 8 7 7 7 7 8 10 11 13 16 18 19 21 21 19 19
5 7 7 6 11 7 11 28 31 32 32 33 36 33 33 37 37 33 30 27 25 22 19 16 15 14 13 10 7 6 5 4 5 6 8 10 12 15 19 21 23 21 21 20
Wind_Direction
186 171 202 222 194 7 227 232 259 257 174 336 264 269 282 278 201 176 177 178 178 170 162 164 168 173 169 170 173 168 165 176 184 188 168 166 161 148 137 132 315 309 300 292
145 217 220 113 181 209 231 245 259 288 262 181 277 276 274 228 183 182 176 176 177 168 164 163 163 161 160 157 164 164 165 159 159 162 159 159 159 171 233 296 312 311 307 304
208 218 200 175 167 186 228 228 255 245 318 275 284 285 271 242 159 180 186 188 177 171 166 166 165 163 158 154 158 160 158 161 159 157 157 160 177 236 276 292 303 311 313 314
239 223 203 208 207 198 221 223 241 248 286 248 166 269 270 254 185 180 179 178 172 171 172 169 169 165 160 158 157 159 161 159 153 146 146 189 295 303 307 310 312 312 311 309
213 186 210 208 210 189 223 175 223 234 242 220 261 254 246 218 230 184 186 179 178 177 174 171 172 169 163 160 162 164 160 153 145 139 358 344 331 320 311 307 306 311 313 316
219 197 199 213 226 191 124 255 257 246 221 253 240 217 207 214 221 174 189 182 175 178 177 172 170 167 165 168 171 168 166 162 166 298 331 335 335 333 329 323 324 324 325 327
188 220 186 168 191 199 171 143 277 269 222 250 208 230 241 232 219 191 183 176 176 178 175 171 169 167 167 165 168 172 176 181 227 311 329 334 343 343 334 333 334 332 330 329
201 213 204 195 196 185 198 197 185 223 232 257 186 232 233 234 217 218 191 177 170 173 177 172 170 170 170 171 174 175 182 209 281 322 337 342 343 341 334 326 326 328 331 334
197 232 184 198 185 172 190 205 218 245 178 13 232 290 308 327 202 149 153 161 168 176 177 175 173 170 169 169 171 180 201 233 299 323 336 338 339 329 325 324 324 327 325 322
191 202 206 202 199 212 216 151 188 216 234 242 226 246 234 251 177 159 157 167 168 175 176 173 170 168 168 171 175 182 200 250 310 325 332 334 326 313 311 312 312 311 312 313
139 152 314 137 202 193 186 211 211 202 171 225 273 253 212 193 182 176 170 169 165 171 173 168 167 168 170 174 180 190 194 220 271 307 318 322 316 313 308 305 304 304 303 304
205 160 203 204 210 204 212 213 209 211 207 230 195 248 290 209 185 167 161 161 162 165 166 165 166 170 173 176 175 177 196 247 284 299 294 292 294 298 303 305 305 304 304 304
179 211 131 325 272 238 203 217 211 212 131 220 203 255 333 147 146 153 153 157 158 162 162 166 170 169 170 169 168 177 189 206 238 269 295 303 306 308 307 306 305 304 303 301
166 163 213 221 224 190 227 215 221 210 227 220 230 233 136 154 149 152 165 162 164 166 168 171 169 169 169 168 174 175 190 242 280 296 301 309 312 311 309 306 303 299 297 298
169 217 204 215 232 226 215 220 221 222 225 214 233 225 191 183 177 180 172 167 168 171 172 169 168 166 165 167 172 189 240 277 290 298 306 312 312 308 306 302 300 303 306 306
156 235 216 233 215 220 233 226 222 226 227 235 219 229 171 194 161 157 174 173 171 168 171 169 165 164 165 173 191 231 264 280 292 304 309 310 308 307 307 308 313 316 317 316
163 158 142 231 192 156 255 220 213 222 224 222 227 203 150 145 171 179 174 175 171 172 171 164 160 165 171 181 210 246 270 287 298 304 304 304 306 309 311 315 319 318 319 323
139 185 132 141 118 213 260 261 203 210 204 193 150 168 165 173 184 180 181 170 171 170 165 161 167 171 178 194 226 259 283 291 296 296 299 305 313 318 320 321 320 323 327 326
111 118 134 170 204 313 239 212 160 185 216 201 161 140 148 138 133 98 181 176 167 167 165 170 174 177 181 213 259 271 282 289 290 291 297 308 321 327 328 330 331 332 334 334
80 108 150 169 178 212 159 208 163 105 246 187 179 181 148 142 175 193 167 172 168 168 170 169 173 187 227 254 255 270 276 282 283 296 301 310 323 331 333 334 334 335 334 330
123 106 191 157 220 284 235 203 161 183 237 185 193 190 165 188 206 166 167 167 167 164 165 175 192 225 264 237 253 270 270 274 297 310 305 308 319 326 330 330 331 330 327 322
154 150 169 142 173 255 178 136 173 212 155 182 177 176 172 169 156 159 162 162 167 169 170 205 202 196 211 236 258 260 271 297 315 320 317 316 311 312 315 319 324 323 322 322
173 172 169 189 205 242 199 283 221 161 157 178 167 169 169 149 146 152 156 164 167 170 172 171 186 195 211 221 239 247 342 17 14 7 355 345 330 320 317 314 315 315 318 320
220 143 164 138 208 206 192 165 178 193 181 173 178 169 162 144 147 151 161 164 164 165 168 175 182 192 196 192 162 130 81 54 41 28 19 15 10 1 352 345 338 330 327 331
175 149 170 257 293 92 178 182 173 165 163 156 155 160 152 147 149 158 161 164 166 166 171 178 183 187 182 167 150 113 84 62 40 25 20 20 14 10 7 3 358 350 347 336
182 167 182 210 192 175 180 175 171 160 157 161 155 145 155 161 160 166 168 170 170 171 174 176 179 178 168 161 149 129 101 46 15 1 350 358 2 2 359 355 351 349 341 340